This is the latest recevied weather packets stored in our database for station/object K5GHS-1. If no packets are shown the sender has not sent any weather packets the latest 10 day(s).
| Time | Temp. | Humidity | Pressure | Rain* | Wind** | Luminosity | Snow |
|---|---|---|---|---|---|---|---|
| 1788719499 | 36.11° C | 47% | 1012.1 hPa | 0 mm | - | 665 W/m² | - |
| 1788719199 | 36.11° C | 49% | 1012.2 hPa | 0 mm | - | 634 W/m² | - |
| 1788718895 | 36.11° C | 47% | 1012.1 hPa | 0 mm | - | 609 W/m² | - |
| 1788718590 | 36.11° C | 48% | 1012.4 hPa | 0 mm | - | 589 W/m² | - |
| 1788718286 | 36.11° C | 47% | 1012.4 hPa | 0 mm | - | 601 W/m² | - |
| 1788717981 | 35.56° C | 47% | 1012.5 hPa | 0 mm | - | 622 W/m² | - |
| 1788717683 | 35.56° C | 48% | 1012.6 hPa | 0 mm | - | 640 W/m² | - |
| 1788717373 | 36.11° C | 47% | 1012.6 hPa | 0 mm | - | 625 W/m² | - |
| 1788717069 | 36.11° C | 47% | 1012.5 hPa | 0 mm | - | 626 W/m² | - |
| 1788716767 | 35.56° C | 49% | 1012.6 hPa | 0 mm | - | 661 W/m² | - |
| 1788716461 | 35.56° C | 50% | 1013 hPa | 0 mm | - | 629 W/m² | - |
| 1788716156 | 35° C | 49% | 1012.7 hPa | 0 mm | - | 634 W/m² | - |
| 1788715853 | 35° C | 50% | 1013 hPa | 0 mm | - | 664 W/m² | - |
| 1788715552 | 35° C | 51% | 1013 hPa | 0 mm | - | 661 W/m² | - |
| 1788715248 | 35° C | 50% | 1013.5 hPa | 0 mm | - | 667 W/m² | - |
| 1788714942 | 34.44° C | 51% | 1013.4 hPa | 0 mm | - | 671 W/m² | - |
| 1788714638 | 35° C | 51% | 1013.4 hPa | 0 mm | - | 686 W/m² | - |
| 1788714333 | 34.44° C | 51% | 1013.4 hPa | 0 mm | - | 691 W/m² | - |
| 1788714032 | 35° C | 52% | 1013.4 hPa | 0 mm | - | 699 W/m² | - |
| 1788713729 | 34.44° C | 51% | 1013.4 hPa | 0 mm | - | 744 W/m² | - |
| 1788713424 | 34.44° C | 52% | 1013.6 hPa | 0 mm | - | 713 W/m² | - |
| 1788713123 | 34.44° C | 51% | 1013.5 hPa | 0 mm | - | 727 W/m² | - |
| 1788712820 | 34.44° C | 52% | 1013.5 hPa | 0 mm | - | 696 W/m² | - |
| 1788712514 | 34.44° C | 51% | 1013.4 hPa | 0 mm | - | 692 W/m² | - |
| 1788712210 | 34.44° C | 53% | 1013.3 hPa | 0 mm | - | 698 W/m² | - |
* Rain latest hour (hover to see other rain measurements)
** Current wind speed in m/s (hover to see current wind gust speed)